Flag for U.S.A. Weather past 2 weeks in Midland, Texas, U.S.A.

Now
82 °F

Sunny.


Feels Like: 82 °F
Forecast: 68 / 80 °F
Wind: 12 mph from Southeast

Location: Midland - Midland Airpark

Current Time: Sep 22, 2014 at 6:04:04 PM

Latest Report: Sep 22, 2014 at 4:10 PM


Visibility: 10 mi

Pressure: 30.18 "Hg

Humidity: 45%

Dew point: 59 °F

Location of MidlandLocation

Historic Weather in Midland — Graph

°F

Midland temperature yesterday

Maximum temperature yesterday: 76 °F (at 1:15 PM)
Minimum temperature yesterday: 70 °F (at 2:55 PM)
Average temperature yesterday: 72 °F

Past Weeks' High & Low Weather Summary

 TemperatureHumidityPressure
High99 °F (Sep 10, 4:15 PM)100% (Sep 18, 12:55 AM)30.37 "Hg (Sep 18, 12:55 AM)
Low50 °F (Sep 13, 7:35 AM)18% (Sep 10, 4:15 PM)29.85 "Hg (Sep 10, 4:55 PM)
Average72 °F81%30.10 "Hg
* Reported Sep 7 5:15 PM — Sep 22 4:10 PM, Midland, Weather by CustomWeather, © 2014

Note: Actual official high and low records may vary slightly from our data, if they occured in-between our weather recording intervals... More about our weather records

Advertising

Midland weather history for previous 24 hours

 ConditionsComfort  
Time TempWeatherWind HumidityBarometerVisibility
4:10 PM
Sep 22
82 °FSunny.12 mph45%30.18 "Hg10 mi
3:55 PM82 °FScattered clouds.12 mph45%30.19 "Hg10 mi
3:35 PM82 °FScattered clouds.13 mph47%30.19 "Hg10 mi
3:15 PM82 °FScattered clouds.13 mph45%30.20 "Hg10 mi
2:55 PM82 °FScattered clouds.10 mph48%30.20 "Hg10 mi
2:35 PM82 °FScattered clouds.13 mph47%30.21 "Hg10 mi
11:55 AM76 °FPartly sunny.7 mph78%30.27 "Hg10 mi
11:35 AM75 °FOvercast.7 mph81%30.28 "Hg10 mi
11:15 AM75 °FOvercast.7 mph79%30.28 "Hg10 mi
10:55 AM74 °FPartly sunny.7 mph81%30.28 "Hg10 mi
10:35 AM73 °FPartly sunny.9 mph84%30.27 "Hg10 mi
10:15 AM72 °FLow clouds.9 mph87%30.27 "Hg7 mi
9:35 AM71 °FLow clouds.8 mph93%30.26 "Hg7 mi
9:15 AM71 °FFog.5 mph97%30.26 "Hg5 mi
8:55 AM70 °FFog.9 mph98%30.25 "Hg4 mi
8:35 AM70 °FFog.9 mph99%30.25 "Hg3 mi
8:15 AM70 °FFog.7 mph100%30.24 "Hg2 mi
7:55 AM70 °FFog.5 mph100%30.23 "Hg2 mi
7:35 AM70 °FFog.6 mph100%30.23 "Hg5 mi
7:15 AM70 °FPassing clouds.6 mph99%30.23 "Hg7 mi
6:55 AM70 °FPassing clouds.7 mph99%30.22 "Hg7 mi
6:35 AM70 °FClear.6 mph99%30.22 "Hg7 mi
6:15 AM70 °FPassing clouds.5 mph99%30.21 "Hg7 mi
5:55 AM70 °FClear.6 mph99%30.21 "Hg7 mi
5:35 AM70 °FClear.5 mph98%30.21 "Hg10 mi
5:15 AM70 °FClear.6 mph99%30.21 "Hg10 mi
4:55 AM70 °FClear.5 mph99%30.21 "Hg7 mi
4:35 AM70 °FClear.5 mph99%30.21 "Hg10 mi
4:15 AM71 °FPassing clouds.6 mph98%30.21 "Hg7 mi
3:55 AM71 °FMostly cloudy.6 mph98%30.21 "Hg7 mi
3:35 AM71 °FPartly cloudy.6 mph99%30.21 "Hg7 mi
3:15 AM71 °FOvercast.No wind99%30.21 "Hg7 mi
2:55 AM71 °FMostly cloudy.3 mph99%30.21 "Hg10 mi
2:35 AM71 °FMostly cloudy.5 mph99%30.21 "Hg7 mi
2:15 AM71 °FMostly cloudy.6 mph99%30.21 "Hg7 mi
1:55 AM71 °FOvercast.8 mph99%30.21 "Hg7 mi
1:35 AM71 °FOvercast.7 mph98%30.22 "Hg10 mi
1:15 AM71 °FMostly cloudy.5 mph98%30.21 "Hg10 mi
12:55 AM72 °FMostly cloudy.5 mph96%30.21 "Hg10 mi
12:35 AM71 °FMostly cloudy.6 mph96%30.22 "Hg10 mi
12:15 AM71 °FOvercast.7 mph98%30.22 "Hg10 mi
11:55 PM
Sep 21
72 °FOvercast.3 mph98%30.22 "Hg10 mi
11:35 PM72 °FOvercast.6 mph99%30.22 "Hg7 mi
11:15 PM72 °FDrizzle. Mostly cloudy.6 mph99%30.22 "Hg7 mi
10:55 PM72 °FPassing clouds.3 mph99%30.22 "Hg7 mi
10:35 PM72 °FPassing clouds.No wind99%30.22 "Hg7 mi
10:15 PM72 °FLight rain. Partly cloudy.3 mph99%30.22 "Hg7 mi
9:55 PM72 °FPassing clouds.No wind99%30.21 "Hg7 mi
9:35 PM72 °FPassing clouds.3 mph99%30.21 "Hg7 mi
9:15 PM72 °FOvercast.No wind98%30.19 "Hg7 mi
8:55 PM72 °FPartly cloudy.No wind98%30.18 "Hg10 mi
8:15 PM72 °FSunny.3 mph98%30.14 "Hg10 mi
7:55 PM72 °FSunny.No wind98%30.14 "Hg10 mi
7:15 PM72 °FLight rain. Scattered clouds.5 mph98%30.14 "Hg7 mi
6:55 PM72 °FLight rain. Cloudy.6 mph97%30.14 "Hg7 mi
6:35 PM73 °FDrizzle. More clouds than sun.6 mph97%30.14 "Hg7 mi
6:15 PM72 °FLight rain. More clouds than sun.7 mph97%30.15 "Hg10 mi
Weather by CustomWeather, © 2014

See weather overviewHow to use our weather pages